Starlink 33814

operational
NORAD ID: 63582 Int'l Des: 2025-076 Owner: SPXS Country: US Constellation: starlink
LEOCIRCULAR

关于 Starlink 33814

正在加载描述...

实时位置

正在加载3D地球...

即将过境

高度历史

Altitude vs Time

uPlot chart will show altitude changes over time

两行轨道根数

1 63582U 25076P 25305.53385188 .00052416 00000-0 18966-2 0 9990
2 63582 43.0043 325.1901 0002233 271.6059 88.4537 15.27651669 32234
Epoch: Nov 1, 2025 • Age: 14 hours

当前状态

高度 492.5 km
速度 7.62 km/s
星下点 -38.06°S, 176.13°W
发射日期 Apr 14, 2025
运行时间 0.5 years
类型 internet

技术详情

分类 Payload
质量 575.00 kg
干质量 530.00 kg
总质量 575.00 kg
长度 0.30 m
直径 4.10 m
跨度 29.00 m
形状 Box + pan
制造商 SPXS
平台类型 Starlink V2MO
阶段状态 In Orbit
所有者/国家 SPXS/US

大型星座

Loading constellations...